This is the latest recevied weather packets stored in our database for station/object WD9EKA. If no packets are shown the sender has not sent any weather packets the latest 10 day(s).
| Time | Temp. | Humidity | Pressure | Rain* | Wind** | Luminosity | Snow |
|---|---|---|---|---|---|---|---|
| 1778113795 | 11.67° C | 62% | 1010.4 hPa | 0 mm | - | - | - |
| 1778113473 | 11.67° C | 61% | 1010.4 hPa | 0 mm | - | - | - |
| 1778113155 | 12.22° C | 61% | 1010.2 hPa | 0 mm | - | - | - |
| 1778112835 | 12.22° C | 60% | 1010.3 hPa | 0 mm | - | - | - |
| 1778112513 | 12.78° C | 57% | 1010.1 hPa | 0 mm | - | - | - |
| 1778112195 | 13.33° C | 55% | 1010.2 hPa | 0 mm | - | - | - |
| 1778111875 | 13.89° C | 55% | 1009.9 hPa | 0 mm | - | - | - |
| 1778111553 | 13.33° C | 56% | 1010 hPa | 0 mm | - | - | - |
| 1778111193 | 13.89° C | 59% | 1010 hPa | 0 mm | - | - | - |
| 1778110833 | 13.33° C | 55% | 1009.8 hPa | 0 mm | - | - | - |
| 1778110473 | 13.89° C | 54% | 1009.9 hPa | 0 mm | - | - | - |
| 1778110113 | 13.33° C | 55% | 1009.8 hPa | 0 mm | - | - | - |
| 1778109813 | 13.89° C | 53% | 1010.1 hPa | 0 mm | - | - | - |
| 1778109453 | 15° C | 50% | 1009.9 hPa | 0 mm | - | - | - |
| 1778109093 | 15° C | 52% | 1010 hPa | 0 mm | - | - | - |
| 1778108733 | 14.44° C | 54% | 1009.8 hPa | 0 mm | - | - | - |
| 1778108373 | 14.44° C | 54% | 1009.9 hPa | 0 mm | - | - | - |
| 1778108013 | 14.44° C | 54% | 1010 hPa | 0 mm | - | - | - |
| 1778107713 | 14.44° C | 52% | 1010.1 hPa | 0 mm | - | - | - |
| 1778107353 | 15° C | 52% | 1009.9 hPa | 0 mm | - | - | - |
| 1778106993 | 14.44° C | 51% | 1010 hPa | 0 mm | - | - | - |
| 1778106633 | 15° C | 51% | 1010.2 hPa | 0 mm | - | - | - |
| 1778106273 | 15° C | 54% | 1010 hPa | 0 mm | - | - | - |
| 1778105913 | 14.44° C | 49% | 1009.9 hPa | 0 mm | - | - | - |
| 1778105553 | 15° C | 54% | 1010 hPa | 0 mm | - | - | - |
* Rain latest hour (hover to see other rain measurements)
** Current wind speed in m/s (hover to see current wind gust speed)